Time,TemperatureF,DewpointF,PressureIn,WindDirection,WindDirectionDegrees,WindSpeedMPH,WindSpeedGustMPH,Humidity,HourlyPrecipIn,Conditions,Clouds,dailyrainin,SoftwareType,DateUTC
2013-04-03 09:03:00,32.0,31.0,-100.00,SSE,167,0.0,-999.0,97,-99.99,,,0.00,,2013-04-03 16:03:00,
2013-04-03 09:12:00,32.0,31.0,-100.00,SSE,167,0.0,-999.0,97,-99.99,,,0.00,,2013-04-03 16:12:00,
2013-04-03 09:23:00,32.0,31.0,-100.00,SSE,167,0.0,-999.0,97,-99.99,,,0.00,,2013-04-03 16:23:00,
2013-04-03 09:32:00,32.0,31.0,-100.00,SSE,167,0.0,-999.0,97,-99.99,,,0.00,,2013-04-03 16:32:00,
2013-04-03 10:02:00,40.0,34.0,-100.00,ESE,110,1.0,2.0,79,-99.99,,,0.00,,2013-04-03 17:02:00,
2013-04-03 10:13:00,40.0,34.0,-100.00,ESE,110,1.0,2.0,79,-99.99,,,0.00,,2013-04-03 17:13:00,
2013-04-03 10:22:00,40.0,34.0,-100.00,ESE,110,1.0,2.0,79,-99.99,,,0.00,,2013-04-03 17:22:00,
2013-04-03 10:32:00,40.0,34.0,-100.00,ESE,110,1.0,2.0,79,-99.99,,,0.00,,2013-04-03 17:32:00,
2013-04-03 10:54:00,53.0,31.0,-100.00,SE,142,1.0,4.0,43,0.00,,,0.00,,2013-04-03 17:54:00,
2013-04-03 11:02:00,53.0,31.0,-100.00,SE,142,1.0,4.0,43,0.00,,,0.00,,2013-04-03 18:02:00,
2013-04-03 11:32:00,53.0,31.0,-100.00,SE,142,1.0,4.0,43,0.00,,,0.00,,2013-04-03 18:32:00,
2013-04-03 12:02:00,59.0,33.0,-100.00,ESE,123,2.0,6.0,37,0.00,,,0.00,,2013-04-03 19:02:00,
2013-04-03 12:32:00,59.0,33.0,-100.00,ESE,123,2.0,6.0,37,0.00,,,0.00,,2013-04-03 19:32:00,
2013-04-03 13:12:00,59.0,36.0,-100.00,North,357,3.0,10.0,42,0.00,,,0.00,,2013-04-03 20:12:00,
2013-04-03 13:22:00,59.0,36.0,-100.00,North,357,3.0,10.0,42,0.00,,,0.00,,2013-04-03 20:22:00,
2013-04-03 13:32:00,59.0,36.0,-100.00,North,357,3.0,10.0,42,0.00,,,0.00,,2013-04-03 20:32:00,
2013-04-03 14:02:00,64.0,35.0,-100.00,SE,146,3.0,8.0,34,0.00,,,0.00,,2013-04-03 21:02:00,
2013-04-03 14:12:00,64.0,35.0,-100.00,SE,146,3.0,8.0,34,0.00,,,0.00,,2013-04-03 21:12:00,
2013-04-03 14:22:00,64.0,35.0,-100.00,SE,146,3.0,8.0,34,0.00,,,0.00,,2013-04-03 21:22:00,
2013-04-03 15:02:00,65.0,34.0,-100.00,NNE,33,2.0,11.0,31,0.00,,,0.00,,2013-04-03 22:02:00,
2013-04-03 15:12:00,65.0,34.0,-100.00,NNE,33,2.0,11.0,31,0.00,,,0.00,,2013-04-03 22:12:00,
2013-04-03 15:22:00,65.0,34.0,-100.00,NNE,33,2.0,11.0,31,0.00,,,0.00,,2013-04-03 22:22:00,
2013-04-03 15:32:00,65.0,34.0,-100.00,NNE,33,2.0,11.0,31,0.00,,,0.00,,2013-04-03 22:32:00,
2013-04-03 16:02:00,65.0,34.0,-100.00,WSW,241,3.0,11.0,32,0.00,,,0.00,,2013-04-03 23:02:00,
2013-04-03 16:12:00,65.0,34.0,-100.00,WSW,241,3.0,11.0,32,0.00,,,0.00,,2013-04-03 23:12:00,
2013-04-03 16:22:00,65.0,34.0,-100.00,WSW,241,3.0,11.0,32,0.00,,,0.00,,2013-04-03 23:22:00,
2013-04-03 16:32:00,65.0,34.0,-100.00,WSW,241,3.0,11.0,32,0.00,,,0.00,,2013-04-03 23:32:00,
2013-04-03 17:02:00,59.0,37.0,-100.00,NNW,347,4.0,13.0,43,0.00,,,0.00,,2013-04-04 00:02:00,
2013-04-03 17:12:00,59.0,37.0,-100.00,NNW,347,4.0,13.0,43,0.00,,,0.00,,2013-04-04 00:12:00,
2013-04-03 17:22:00,59.0,37.0,-100.00,NNW,347,4.0,13.0,43,0.00,,,0.00,,2013-04-04 00:22:00,
2013-04-03 17:32:00,59.0,37.0,-100.00,NNW,347,4.0,13.0,43,0.00,,,0.00,,2013-04-04 00:32:00,
2013-04-03 18:02:00,60.0,41.0,-100.00,North,356,2.0,12.0,50,0.00,,,0.00,,2013-04-04 01:02:00,
2013-04-03 18:11:00,60.0,41.0,-100.00,North,356,2.0,12.0,50,0.00,,,0.00,,2013-04-04 01:11:00,
2013-04-03 18:22:00,60.0,41.0,-100.00,North,356,2.0,12.0,50,0.00,,,0.00,,2013-04-04 01:22:00,
2013-04-03 18:32:00,60.0,41.0,-100.00,North,356,2.0,12.0,50,0.00,,,0.00,,2013-04-04 01:32:00,